Dumas, Arkansas, United States (71639)
Lat: 33.89N, Lon: 91.49W
Wx Zone: ARZ065
Local Info
Past Weather Observations for Monday, December 15, 2014

NOTE: This archive is for the closest National Weather Service station to Dumas. Information may differ from the station used for current weather conditions.

Click here for Long-term Archive

Time Weather Temperature Dewpoint Humidity Pressure Winds Precip Visibility
23:53
Clear
50°F / 10°C 37°F / 3°C 62% 30.01 in
(1016 mb)
W 8.1 mph
(W 13 kph)
- 10SM
22:53
Clear
52°F / 11°C 37°F / 3°C 58% 30.01 in
(1016 mb)
W 8.1 mph
(W 13 kph)
0.00 in
(0.00 mm)
10SM
21:53
Clear
Light Rain
54°F / 12°C 39°F / 4°C 58% 29.98 in
(1015 mb)
W 11.5 mph
(W 19 kph)
0.00 in
(0.00 mm)
10SM
20:53
Clear
55°F / 13°C 41°F / 5°C 59% 29.98 in
(1015 mb)
W 9.2 mph
(W 15 kph)
- 10SM
19:53
Clear
57°F / 14°C 41°F / 5°C 55% 29.95 in
(1014 mb)
W 9.2 mph
(W 15 kph)
- 10SM
18:53
Clear
61°F / 16°C 39°F / 4°C 45% 29.89 in
(1012 mb)
SSW 8.1 mph
(SSW 13 kph)
- 10SM
17:53
Clear
63°F / 17°C 39°F / 4°C 42% 29.86 in
(1011 mb)
SW 6.9 mph
(SW 11 kph)
0.00 in
(0.00 mm)
10SM
16:53
Clear
66°F / 19°C 39°F / 4°C 37% 29.83 in
(1010 mb)
SW 6.9 mph
(SW 11 kph)
- 10SM
15:53
Clear
72°F / 22°C 39°F / 4°C 31% 29.8 in
(1009 mb)
SW 11.5 mph
(SW 19 kph)
- 10SM
14:53
Clear
72°F / 22°C 46°F / 8°C 41% 29.8 in
(1009 mb)
SSW 9.2 mph
(SSW 15 kph)
- 10SM
13:53
Clear
72°F / 22°C 54°F / 12°C 53% 29.8 in
(1009 mb)
SW 13.8 mph
(SW 22 kph)
- 10SM
12:53
Clear
70°F / 21°C 57°F / 14°C 64% 29.8 in
(1009 mb)
SSW 11.5 mph
(SSW 19 kph)
- 10SM
11:53
Mostly Cloudy
64°F / 18°C 59°F / 15°C 83% 29.83 in
(1010 mb)
SW 9.2 mph
(SW 15 kph)
0.00 in
(0.00 mm)
10SM
10:53
Overcast
Light Rain
63°F / 17°C 59°F / 15°C 88% 29.86 in
(1011 mb)
S 5.8 mph
(S 9 kph)
0.05 in
(1.27 mm)
9SM
10:41
Overcast
Light Rain
61°F / 16°C 59°F / 15°C 94% 29.89 in
(1012 mb)
S 5.8 mph
(S 9 kph)
0.05 in
(1.27 mm)
3SM
10:32
Overcast
Heavy Rain
61°F / 16°C 59°F / 15°C 94% 29.89 in
(1012 mb)
Variable 6.9 mph
(Variable 11 kph)
0.04 in
(1.02 mm)
1 3/4SM
09:53
Overcast
61°F / 16°C 59°F / 15°C 94% 29.89 in
(1012 mb)
S 11.5 mph
(S 19 kph)
0.00 in
(0.00 mm)
10SM
08:53
Overcast
61°F / 16°C 57°F / 14°C 88% 29.89 in
(1012 mb)
S 12.7 mph
(S 20 kph)
- 9SM
08:29
Overcast
59°F / 15°C 55°F / 13°C 88% 29.89 in
(1012 mb)
S 13.8 mph
(S 22 kph)
- 10SM
07:53
Overcast
57°F / 14°C 55°F / 13°C 94% 29.89 in
(1012 mb)
S 8.1 mph
(S 13 kph)
- 10SM
07:14
Overcast
55°F / 13°C 54°F / 12°C 94% 29.89 in
(1012 mb)
SSE 10.4 mph
(SSE 17 kph)
- 9SM
07:00
Overcast
55°F / 13°C 54°F / 12°C 94% 29.89 in
(1012 mb)
S 8.1 mph
(S 13 kph)
- 9SM
06:53
Overcast
55°F / 13°C 54°F / 12°C 94% 29.89 in
(1012 mb)
SSE 9.2 mph
(SSE 15 kph)
0.00 in
(0.00 mm)
9SM
06:34
Overcast
55°F / 13°C 54°F / 12°C 94% 29.89 in
(1012 mb)
S 8.1 mph
(S 13 kph)
0.00 in
(0.00 mm)
10SM
06:27
Overcast
55°F / 13°C 54°F / 12°C 94% 29.89 in
(1012 mb)
S 8.1 mph
(S 13 kph)
0.00 in
(0.00 mm)
10SM
05:53
Overcast
55°F / 13°C 52°F / 11°C 88% 29.89 in
(1012 mb)
S 5.8 mph
(S 9 kph)
0.12 in
(3.05 mm)
10SM
05:16
Overcast
Rain
55°F / 13°C 52°F / 11°C 88% 29.89 in
(1012 mb)
S 9.2 mph
(S 15 kph)
0.12 in
(3.05 mm)
3SM
04:59
Overcast
Heavy Rain
55°F / 13°C 52°F / 11°C 88% 29.89 in
(1012 mb)
S 6.9 mph
(S 11 kph)
0.05 in
(1.27 mm)
2 1/2SM
04:53
Overcast
Light Rain
55°F / 13°C 52°F / 11°C 88% 29.89 in
(1012 mb)
SSE 6.9 mph
(SSE 11 kph)
0.07 in
(1.78 mm)
5SM
04:31
Overcast
Light Rain
57°F / 14°C 52°F / 11°C 82% 29.89 in
(1012 mb)
S 8.1 mph
(S 13 kph)
0.01 in
(0.25 mm)
8SM
03:53
Overcast
57°F / 14°C 50°F / 10°C 77% 29.89 in
(1012 mb)
SSE 10.4 mph
(SSE 17 kph)
- 10SM
02:53
Mostly Cloudy
57°F / 14°C 50°F / 10°C 77% 29.92 in
(1013 mb)
S 10.4 mph
(S 17 kph)
- 10SM
01:53
Overcast
55°F / 13°C 48°F / 9°C 77% 29.92 in
(1013 mb)
SE 10.4 mph
(SE 17 kph)
0.00 in
(0.00 mm)
10SM
00:53
Clear
55°F / 13°C 48°F / 9°C 77% 29.95 in
(1014 mb)
SSE 8.1 mph
(SSE 13 kph)
- 10SM
Time Weather Temperature Dewpoint Humidity Pressure Winds Precip Visibility


Weather for websites

WeatherForYou.com, LLC is not responsible for any damages or problems caused by this service. Current weather conditions are obtained from the closest station including government and personal stations which may have varying degrees of accuracy. Weather forecasts are derived from the NOAA NDFD. Like all things, this site belongs to Jesus Christ... He just trusts me to maintain it. If you have any questions or comments email webmaster@weatherforyou.com

Copyright © 2014, WeatherForYou.com LLC. All rights reserved.